Overview Statistics Trail Chart Weather Telemetry Raw packets
 

This is the latest recevied weather packets stored in our database for station/object KA1BMF-13. If no packets are shown the sender has not sent any weather packets the latest 10 day(s).

<< 41 42 43 44 45 46 47 >>
Time Temp. Humidity Pressure Rain* Wind** Luminosity Snow
1787883918 20.56° C 96% 1015.7 hPa 0 mm - 0 W/m² -
1787883318 20.56° C 95% 1015.9 hPa 0 mm - 0 W/m² -
1787882718 20.56° C 95% 1016 hPa 0 mm - 0 W/m² -
1787882119 20.56° C 95% 1016 hPa 0 mm - 0 W/m² -
1787881519 20.56° C 95% 1016.1 hPa 0 mm - 0 W/m² -
1787880919 20.56° C 94% 1016.3 hPa 0 mm - 0 W/m² -
1787880319 21.11° C 94% 1016.3 hPa 0 mm - 0 W/m² -
1787879716 21.11° C 94% 1016.2 hPa 0 mm - 0 W/m² -
1787879116 21.11° C 93% 1016.2 hPa 0 mm - 0 W/m² -
1787878520 21.11° C 93% 1016.1 hPa 0 mm - 0 W/m² -
1787877918 21.11° C 92% 1016 hPa 0 mm - 0 W/m² -
1787877317 21.67° C 92% 1015.9 hPa 0 mm - 0 W/m² -
1787876717 21.67° C 91% 1015.8 hPa 0 mm - 0 W/m² -
1787876117 21.67° C 90% 1015.7 hPa 0 mm - 0 W/m² -
1787875520 22.22° C 90% 1015.4 hPa 0 mm - 0 W/m² -
1787874918 22.22° C 89% 1015 hPa 0 mm - 0 W/m² -
1787874318 22.22° C 88% 1014.9 hPa 0 mm - 1 W/m² -
1787873718 22.78° C 88% 1015 hPa 0 mm - 2 W/m² -
1787873118 22.78° C 87% 1015 hPa 0 mm - 6 W/m² -
1787872518 22.78° C 87% 1015.1 hPa 0 mm - 15 W/m² -
1787871918 22.78° C 86% 1015.1 hPa 0 mm - 25 W/m² -
1787871319 23.33° C 84% 1015.1 hPa 0 mm - 29 W/m² -
1787870719 23.33° C 84% 1015 hPa 0 mm - 33 W/m² -
1787870119 23.33° C 83% 1015.1 hPa 0 mm - 44 W/m² -
1787869516 23.33° C 83% 1015.1 hPa 0 mm - 56 W/m² -

* Rain latest hour (hover to see other rain measurements)
** Current wind speed in m/s (hover to see current wind gust speed)